DW0465 Weather Reports


Display with metric or nautical units.
time (UTC)temp
F
wind
direction
speed
MPH
gust
MPH
rain 1hr
in
rain 24hr
in
rain mn
in
humidity
%
barometer
mb
20260506211534 55 217 0.0 1.0 0.00 0.00 0.00 23 1016.0
20260506210031 54 306 0.0 1.0 0.00 0.00 0.00 24 1016.5
20260506204522 53 98 0.0 2.0 0.00 0.00 0.00 24 1016.8
20260506203019 52 300 0.0 1.0 0.00 0.00 0.00 23 1017.2
20260506201526 52 182 0.0 2.0 0.00 0.00 0.00 23 1017.4
20260506200012 51 170 0.0 1.0 0.00 0.00 0.00 27 1017.5
20260506194509 49 221 0.0 1.0 0.00 0.00 0.00 27 1017.9
20260506193005 48 73 0.0 1.0 0.00 0.00 0.00 29 1018.3
20260506191501 48 116 0.0 0.0 0.00 0.00 0.00 29 1018.6
20260506190058 47 76 0.0 0.0 0.00 0.00 0.00 31 1018.7
20260506184620 46 136 0.0 3.0 0.00 0.00 0.00 30 1019.0
20260506183054 46 144 0.0 2.0 0.00 0.00 0.00 31 1019.2
20260506181549 44 122 0.0 2.0 0.00 0.00 0.00 33 1019.5
20260506180046 43 48 0.0 2.0 0.00 0.00 0.00 38 1019.8
20260506174544 43 138 0.0 1.0 0.00 0.00 0.00 36 1020.0
20260506173046 42 95 0.0 4.0 0.00 0.00 0.00 38 1020.3
20260506171547 41 107 0.0 0.0 0.00 0.00 0.00 39 1020.1
20260506170033 42 288 0.0 1.0 0.00 0.00 0.00 37 1020.3
20260506164528 41 211 0.0 1.0 0.00 0.00 0.00 42 1020.5
20260506163027 40 150 0.0 0.0 0.00 0.00 0.00 43 1020.5
20260506161519 39 149 0.0 1.0 0.00 0.00 0.00 43 1020.7
20260506160017 38 155 0.0 2.0 0.00 0.00 0.00 45 1020.9
20260506154512 38 188 0.0 0.0 0.00 0.00 0.00 46 1021.1
20260506153007 37 199 0.0 0.0 0.00 0.00 0.00 49 1021.2
20260506151502 36 219 0.0 1.0 0.00 0.00 0.00 50 1021.3
20260506150058 35 188 0.0 1.0 0.00 0.00 0.00 51 1021.4
20260506144603 34 229 0.0 1.0 0.00 0.00 0.00 50 1021.6
20260506143050 32 196 0.0 1.0 0.00 0.00 0.00 54 1021.8
20260506141544 31 211 0.0 3.0 0.00 0.00 0.00 56 1022.0
20260506140041 29 208 0.0 4.0 0.00 0.00 0.00 58 1022.0
20260506134537 27 246 0.0 3.0 0.00 0.00 0.00 60 1021.9
20260506133035 26 236 0.0 2.0 0.00 0.00 0.00 65 1021.8
20260506131534 24 207 0.0 1.0 0.00 0.00 0.00 70 1021.6
20260506130024 23 197 0.0 1.0 0.00 0.00 0.00 70 1021.4
20260506124521 22 196 0.0 0.0 0.00 0.00 0.00 72 1021.2
20260506123017 21 193 0.0 3.0 0.00 0.00 0.00 73 1021.1
20260506121513 21 195 0.0 4.0 0.00 0.00 0.00 74 1020.9
20260506120013 21 197 0.0 0.0 0.00 0.00 0.00 77 1020.9
20260506114528 21 200 0.0 0.0 0.00 0.00 0.00 77 1020.7
20260506113007 22 201 0.0 0.0 0.00 0.00 0.00 78 1020.6
20260506111506 22 211 0.0 0.0 0.00 0.00 0.00 78 1020.4
20260506110004 22 212 0.0 0.0 0.00 0.00 0.00 79 1020.2
20260506104501 23 213 0.0 0.0 0.00 0.00 0.00 79 1020.2
20260506103100 23 215 0.0 0.0 0.00 0.00 0.00 78 1020.2
20260506101556 24 212 0.0 0.0 0.00 0.00 0.00 77 1020.0
20260506100109 24 228 0.0 2.0 0.00 0.00 0.00 79 1020.0
20260506094554 25 190 0.0 4.0 0.00 0.00 0.00 82 1020.1
20260506093056 24 194 0.0 0.0 0.00 0.00 0.00 83 1020.0
20260506091554 24 142 0.0 0.0 0.00 0.00 0.00 81 1019.9
20260506090048 25 141 0.0 0.0 0.00 0.00 0.00 80 1019.7
20260506084544 26 141 0.0 1.0 0.00 0.00 0.00 80 1019.5
20260506083040 27 142 0.0 0.0 0.00 0.00 0.00 79 1019.5
20260506081542 28 142 0.0 0.0 0.00 0.00 0.00 79 1019.4
20260506073030 30 309 0.0 0.0 0.00 0.00 0.00 73 1019.5
20260506071527 31 311 0.0 0.0 0.00 0.00 0.00 71 1019.7
20260506061523 31 310 0.0 0.0 0.00 0.00 0.00 73 1019.5
20260506044526 31 12 0.0 0.0 0.00 0.00 0.00 74 1019.2
20260506043014 31 360 0.0 4.0 0.00 0.00 0.00 71 1019.0
20260506041511 32 346 0.0 2.0 0.00 0.00 0.00 70 1018.9
20260506040008 32 52 0.0 0.0 0.00 0.00 0.00 72 1018.6
20260506034510 32 95 0.0 0.0 0.00 0.00 0.00 71 1018.4
20260506033006 33 42 0.0 0.0 0.00 0.00 0.00 65 1018.1
20260506031511 33 350 0.0 4.0 0.00 0.00 0.00 62 1017.6
20260506030120 33 355 0.0 3.0 0.00 0.00 0.00 63 1017.3
20260506024559 33 355 0.0 4.0 0.00 0.00 0.00 64 1017.0
20260506023056 34 342 0.0 5.0 0.00 0.00 0.00 64 1016.6
20260506021559 34 343 0.0 4.0 0.00 0.00 0.00 65 1016.4
20260506020052 34 315 0.0 3.0 0.00 0.00 0.00 67 1016.2
20260506014558 34 301 0.0 1.0 0.00 0.00 0.00 70 1015.9
20260506013054 33 299 0.0 3.0 0.00 0.00 0.00 74 1015.9
20260506011548 33 69 0.0 2.0 0.00 0.00 0.00 73 1015.8
20260506010053 33 15 0.0 7.0 0.00 0.00 0.00 74 1016.0
20260506004551 33 355 0.0 3.0 0.00 0.00 0.00 72 1015.6
20260506003045 34 322 0.0 4.0 0.00 0.00 0.00 70 1015.4
20260506001546 34 5 0.0 1.0 0.00 0.00 0.00 69 1015.2
20260506000042 35 335 1.0 6.0 0.00 0.00 0.00 68 1015.1
20260505234540 34 313 0.0 6.0 0.00 0.00 0.00 73 1014.5
20260505233039 34 335 0.0 2.0 0.00 0.00 0.00 77 1014.5
20260505231538 33 321 0.0 2.0 0.00 0.00 0.00 82 1014.6
20260505230045 33 360 0.0 3.0 0.00 0.00 0.00 86 1014.4
20260505224537 33 344 0.0 2.0 0.00 0.00 0.00 83 1014.4
20260505223033 34 11 0.0 4.0 0.00 0.00 0.00 72 1014.1
20260505221529 36 60 0.0 2.0 0.00 0.00 0.00 63 1013.9
20260505220032 35 344 0.0 2.0 0.00 0.00 0.00 69 1013.8
20260505214533 34 309 0.0 4.0 0.00 0.00 0.00 76 1013.5
20260505213025 34 315 0.0 2.0 0.00 0.00 0.00 76 1013.7